Weather History for Kiana, AK

Change the Weather History Date:

Thursday, January 19, 2012

  Actual Average (PASK) Record (PASK)
Temperature  
Mean Temperature 6 °F -  
Max Temperature 17 °F 1 °F 32 °F (2001)
Min Temperature -7 °F -7 °F -43 °F (1999)
Degree Days  
Heating Degree Days 59    
Moisture  
Dew Point 1 °F    
Average Humidity 76    
Maximum Humidity 92    
Minimum Humidity 54    
Precipitation  
Precipitation 0.00 in - - ()
Sea Level Pressure  
Sea Level Pressure 30.43 in    
Wind  
Wind Speed 6 mph (NNE)    
Max Wind Speed 24 mph    
Max Gust Speed 38 mph    
Visibility 10 miles    
Events Snow    
Averages and records for this station are not official NWS values.
T = Trace of Precipitation, MM = Missing Value Source: NWS Daily Summary

Daily Weather History Graph

Daily Weather History Graph

Search for Another Location

Airport:

Trip Planner

Search our weather history database for the weather conditions in past years. The results will help you decide how hot, cold, wet, or windy it might be!

Date:

Astronomy

Jan. 19, 2012 Rise Set
Actual Time 11:37 AM AKST 4:08 PM AKST
Civil Twilight 10:16 AM AKST 5:29 PM AKST
Nautical Twilight 9:03 AM AKST 6:42 PM AKST
Astronomical Twilight 7:59 AM AKST 7:46 PM AKST
Moon 9:46 AM AKST (1/19) 11:30 AM AKST (1/19)
Length of Visible Light 7h 13m
Length of Day
4h 30m
Waning Crescent, 14% of the Moon is Illuminated
Jan 19
Waning Crescent
Jan 22
New
Jan 30
First Quarter
Feb 7
Full
Feb 14
Last Quarter

Hourly Weather History & Observations

Time (AKST) Temp. Windchill Dew Point Humidity Pressure Visibility Wind Dir Wind Speed Gust Speed Precip Events Conditions
12:01 AM -0.9 °F -11.0 °F -5.1 °F 83% 30.48 in 10.0 mi North 4.6 mph - N/A   Overcast
1:01 AM -4.0 °F - -8.0 °F 83% 30.46 in 10.0 mi Calm Calm - N/A   Clear
2:01 AM -6.0 °F - -9.9 °F 83% 30.44 in 10.0 mi Calm Calm - N/A   Clear
3:01 AM -6.0 °F - -11.0 °F 79% 30.44 in 10.0 mi Calm Calm - N/A   Clear
4:01 AM -6.0 °F -16.9 °F -9.0 °F 87% 30.44 in 10.0 mi NNE 4.6 mph - N/A   Clear
5:01 AM -7.1 °F - -11.9 °F 79% 30.43 in 10.0 mi Calm Calm - N/A   Clear
6:01 AM -7.1 °F -19.9 °F -11.0 °F 83% 30.43 in 10.0 mi North 5.8 mph - N/A   Clear
7:01 AM -7.1 °F - -11.9 °F 79% 30.43 in 10.0 mi Calm Calm - N/A   Clear
8:01 AM -2.9 °F - -6.0 °F 87% 30.40 in 10.0 mi Calm Calm - N/A   Clear
9:01 AM 10.9 °F -4.7 °F 9.0 °F 92% 30.39 in 10.0 mi North 13.8 mph - N/A   Clear
10:01 AM 15.1 °F 5.2 °F 12.9 °F 91% 30.39 in 9.0 mi North 6.9 mph 16.1 mph 0.00 in   Clear
11:01 AM 14.0 °F -0.8 °F 10.9 °F 88% 30.41 in 10.0 mi North 13.8 mph 21.9 mph N/A   Clear
12:01 PM 14.0 °F -5.1 °F 10.0 °F 84% 30.42 in 10.0 mi North 24.2 mph 38.0 mph N/A   Clear
1:01 PM 16.0 °F 4.4 °F 9.0 °F 74% 30.42 in 10.0 mi North 9.2 mph 19.6 mph N/A   Clear
2:01 PM 16.0 °F 1.7 °F 9.0 °F 74% 30.43 in 10.0 mi North 13.8 mph 20.7 mph N/A   Clear
3:01 PM 17.1 °F 1.0 °F 7.0 °F 65% 30.44 in 10.0 mi NNE 18.4 mph 24.2 mph N/A   Clear
4:01 PM 12.9 °F -0.9 °F 5.0 °F 71% 30.43 in 10.0 mi North 11.5 mph - N/A   Clear
5:01 PM 10.9 °F -3.4 °F 5.0 °F 77% 30.41 in 10.0 mi North 11.5 mph 23.0 mph N/A   Clear
6:01 PM 19.0 °F 2.0 °F 6.1 °F 57% 30.41 in 9.0 mi NNE 23.0 mph 35.7 mph 0.00 in Snow Light Snow
7:01 PM 17.1 °F 10.0 °F 5.0 °F 59% 30.45 in 10.0 mi SSE 4.6 mph - 0.00 in   Clear
8:01 PM 15.1 °F 4.2 °F 5.0 °F 64% 30.45 in 10.0 mi East 8.1 mph - N/A   Clear
9:01 PM 12.9 °F -0.2 °F 3.9 °F 67% 30.45 in 10.0 mi NE 10.4 mph - N/A   Clear
10:01 PM 15.1 °F 9.4 °F 3.9 °F 61% 30.46 in 10.0 mi North 3.5 mph - N/A   Clear
11:01 PM 18.0 °F 3.1 °F 3.9 °F 54% 30.45 in 10.0 mi NE 16.1 mph 24.2 mph N/A   Clear